Regional Weather Roundup
Issued by NWS

Home | Current Version | Previous Version | Text Only | Print | Product List | Glossary On
Versions: 1 2 3 4 5 6 7 8 9 10 11 12 13 14 15 16 17 18 19 20 21 22 23 24 25 26 27 28 29 30 31 32 33 34 35 36 37 38 39 40 41 42 43 44 45 46 47 48 49 50
000
ASUS44 KLIX 030010
RWRLA
LOUISIANA WEATHER ROUNDUP
NATIONAL WEATHER SERVICE NEW ORLEANS LA
700 PM CDT TUE SEP 02 2014

NOTE: "FAIR" INDICATES FEW OR NO CLOUDS BELOW 12,000 FEET WITH NO
      SIGNIFICANT WEATHER AND/OR OBSTRUCTIONS TO VISIBILITY.
      SKY/WX - SKY CONDITION AND SIGNIFICANT WEATHER.
      TMP - AIR TEMPERATURE.    DP   - DEWPOINT TEMPERATURE.
      RH  - RELATIVE HUMIDITY.  PRES - PRESSURE.
      HX  - HEAT INDEX.         WCI  - WIND CHILL INDEX.

*  THESE STATIONS ARE NOT NWS OR FAA STATIONS AND ARE NOT UNDER
   NWS QUALITY CONTROL.

LAZ040-048-061>063-065-066-069-030100-
SOUTHEAST LOUISIANA

CITY           SKY/WX    TMP DP  RH WIND       PRES   REMARKS
N.O. AUDUBON     N/A     88  77  70 MISG        N/A  HX 100
6HR MIN TEMP:  87; 6HR MAX TEMP:  93;

N.O. INTL ARPT MOCLDY    86  73  65 S8        29.99S
6HR MIN TEMP:  86; 6HR MAX TEMP:  93;

N.O. LAKEFRONT MOCLDY    83  77  82 SE6       30.00R
6HR MIN TEMP:  79; 6HR MAX TEMP:  87; 6HR PCP:  0.56;

N.O. DOWNTOWN* FAIR      86  72  62 CALM      30.00S
6HR MIN TEMP:  81; 6HR MAX TEMP:  91; 6HR PCP:  1.03;

SLIDELL        PTCLDY    83  75  77 SE3       30.00R
6HR MIN TEMP:  83; 6HR MAX TEMP:  91; 6HR PCP:  0.01;

BATON ROUGE    CLOUDY    76  74  93 NE3       30.01F
6HR MIN TEMP:  76; 6HR MAX TEMP:  93; 6HR PCP:  0.42;

BOOTHVILLE     MOCLDY    85  76  74 SE3       30.00R
6HR MIN TEMP:  78; 6HR MAX TEMP:  87; 6HR PCP:  0.25;

BELLE CHASSE   MOCLDY    87  69  54 S6        29.99R
6HR MIN TEMP:  86; 6HR MAX TEMP:  92;

BOGALUSA*      MOCLDY    83  75  77 CALM      30.03R
6HR MIN TEMP:  83; 6HR MAX TEMP:  91; 6HR PCP:  0.03;

GALLIANO*      NOT AVBL
NEW ROADS*     CLOUDY    76  74  93 NW5       30.02R THUNDER
6HR MIN TEMP:  76; 6HR MAX TEMP:  89; 6HR PCP:  0.12;

GONZALES*      TSTM      78  78  98 SW12      30.00R
6HR MIN TEMP:  78; 6HR MAX TEMP:  92; 6HR PCP:  0.37;

HAMMOND*       CLOUDY    79  73  83 CALM      30.02R
HOUMA*         PTCLDY    86  72  62 S3        29.99S
PORT FOURCHON* CLEAR     86  73  66 E5        30.01S

$$

LAZ041-044-053-054-030100-
SOUTHWEST LOUISIANA

CITY           SKY/WX    TMP DP  RH WIND       PRES   REMARKS
LAKE CHARLES   MOCLDY    85  76  74 CALM      30.00R
6HR MIN TEMP:  85; 6HR MAX TEMP:  90;

LAFAYETTE      CLOUDY    83  75  77 N9        30.01R
6HR MIN TEMP:  83; 6HR MAX TEMP:  92;

PATTERSON      PTCLDY    86  77  74 SW3       30.03R HX  97
SALT POINT       N/A     89  76  65 CALM      29.99S HX 100
6HR MIN TEMP:  89; 6HR MAX TEMP:  92; 6HR PCP:  0.06;

NEW IBERIA     MOCLDY    86  75  69 SW5       30.01R HX  95
6HR MIN TEMP:  86; 6HR MAX TEMP:  92;

CHENAULT AIRPK PTCLDY    88  73  62 SW3       30.01  HX  96

$$

LAZ027-028-030100-
CENTRAL LOUISIANA

CITY           SKY/WX    TMP DP  RH WIND       PRES   REMARKS
FORT POLK      TSTM      72  72 100 SE12      30.02F
6HR MIN TEMP:  72; 6HR MAX TEMP:  88; 6HR PCP:  0.60;

ALEXANDRIA INT CLOUDY    76  73  91 SE8       30.01R
6HR MIN TEMP:  76; 6HR MAX TEMP:  92; 6HR PCP:  0.10;

ALEXANDRIA     LGT RAIN  76  72  87 SE6       30.03R
6HR MIN TEMP:  76; 6HR MAX TEMP:  94; 6HR PCP:  0.25;


$$

LAZ001-002-030100-
NORTHWEST LOUISIANA

CITY           SKY/WX    TMP DP  RH WIND       PRES   REMARKS
SHREVEPORT     CLOUDY    76  73  91 E3        29.94R
6HR MIN TEMP:  76; 6HR MAX TEMP:  86; 6HR PCP:  0.47;

BARKSDALE AFB  PTCLDY    75  74  98 SE3       29.94S
6HR MIN TEMP:  74; 6HR MAX TEMP:  80; 6HR PCP:  0.12;

DTN SHREVEPORT CLOUDY    76  73  91 CALM      29.95R
6HR MIN TEMP:  75; 6HR MAX TEMP:  83;


$$

LAZ014-016-030100-
NORTHEAST LOUISIANA

CITY           SKY/WX    TMP DP  RH WIND       PRES   REMARKS
MONROE         CLOUDY    74  72  93 NE6       29.97F
6HR MIN TEMP:  73; 6HR MAX TEMP:  90; 6HR PCP:  0.83;

TALLULAH       LGT RAIN  76  74  93 SE9       29.99F
6HR MIN TEMP:  75; 6HR MAX TEMP:  91; 6HR PCP:  0.95;


$$



USA.gov is the U.S. government's official web portal to all federal, state and local government web resources and services.